$Date,$Time,DM0201B,DM0203B,DM0205B,DM0207B,DM0209B
04/02/99,00:00:01,0,0,0,0,0
04/02/99,00:05:01,503,167,-16,24,953
04/02/99,00:10:01,574,167,-16,26,953
04/02/99,00:15:01,579,163,-16,28,953
04/02/99,00:20:01,518,175,-16,31,953
04/02/99,00:25:01,481,161,-16,33,953
04/02/99,00:30:01,555,175,-16,29,953
04/02/99,00:35:01,521,163,-16,27,953
04/02/99,00:40:01,510,163,-16,27,953
04/02/99,00:45:01,583,173,-16,27,953
04/02/99,00:50:01,553,164,-16,29,953
04/02/99,00:55:01,532,175,-16,31,953
04/02/99,01:00:01,559,163,-16,35,953
04/02/99,01:05:01,502,163,-16,35,953
04/02/99,01:10:01,536,173,-16,35,953
04/02/99,01:15:01,575,173,-16,37,953
04/02/99,01:20:01,474,173,-16,37,953
04/02/99,01:25:01,506,173,-16,37,953
04/02/99,01:30:01,606,173,-16,41,953
04/02/99,01:35:01,602,173,-16,41,953
04/02/99,01:40:01,539,175,-16,43,953
04/02/99,01:45:01,642,175,-16,43,953
04/02/99,01:50:01,551,185,-16,43,953
04/02/99,01:55:01,607,185,-16,41,953
04/02/99,02:00:01,576,175,-16,41,953
04/02/99,02:05:01,570,175,-16,41,953
04/02/99,02:10:01,638,175,-16,41,953
04/02/99,02:15:01,648,175,-16,41,953
04/02/99,02:20:01,563,165,-16,39,953
04/02/99,02:25:01,587,167,-16,41,953
04/02/99,02:30:01,557,177,-16,43,951
04/02/99,02:35:01,615,177,-16,43,951
04/02/99,02:40:01,628,170,-16,45,951
04/02/99,02:45:01,539,170,-16,47,951
04/02/99,02:50:01,670,173,-16,47,951
04/02/99,02:55:01,586,173,-16,47,951
04/02/99,03:00:01,661,163,-16,47,951
04/02/99,03:05:01,695,173,-16,47,951
04/02/99,03:10:01,657,173,-16,45,951
04/02/99,03:15:01,660,163,-16,41,951
04/02/99,03:20:01,725,163,-16,39,951
04/02/99,03:25:01,737,173,-16,35,951
04/02/99,03:30:01,690,173,-16,29,951
04/02/99,03:35:01,692,173,-16,25,951
04/02/99,03:40:01,677,173,-16,23,951
04/02/99,03:45:01,677,173,-16,25,951
04/02/99,03:50:01,661,179,-16,27,951
04/02/99,03:55:01,596,169,-16,27,951
04/02/99,04:00:01,638,169,-16,25,951
04/02/99,04:05:01,691,170,-16,23,951
04/02/99,04:10:01,706,170,-16,21,951
04/02/99,04:15:01,629,170,-16,19,951
04/02/99,04:20:01,683,170,-16,17,951
04/02/99,04:25:01,671,170,-16,15,951
04/02/99,04:30:01,636,170,-16,15,951
04/02/99,04:35:01,702,170,-16,15,951
04/02/99,04:40:01,628,170,-16,15,951
04/02/99,04:45:01,695,170,-16,13,951
04/02/99,04:50:01,639,170,-16,13,951
04/02/99,04:55:01,623,170,-16,13,951
04/02/99,05:00:01,524,170,-16,11,951
04/02/99,05:05:01,561,170,-16,9,951
04/02/99,05:10:01,485,170,-16,9,951
04/02/99,05:15:01,518,170,-16,9,951
04/02/99,05:20:01,494,170,-16,7,951
04/02/99,05:25:01,526,170,-16,5,951
04/02/99,05:30:01,575,170,-16,5,951
04/02/99,05:35:01,523,170,-16,3,951
04/02/99,05:40:01,500,170,-16,3,951
04/02/99,05:45:01,510,170,-14,3,951
04/02/99,05:50:01,521,170,-14,3,951
04/02/99,05:55:01,501,170,-14,1,951
04/02/99,06:00:01,544,170,-14,1,951
04/02/99,06:05:01,531,180,-14,1,951
04/02/99,06:10:01,531,180,-14,1,951
04/02/99,06:15:01,591,180,-14,1,951
04/02/99,06:20:01,569,180,-14,1,951
04/02/99,06:25:01,555,180,-14,1,951
04/02/99,06:30:01,574,180,-14,1,951
04/02/99,06:35:01,565,180,-14,1,951
04/02/99,06:40:01,487,180,-14,1,951
04/02/99,06:45:01,447,178,-14,1,951
04/02/99,06:50:01,496,178,-14,1,951
04/02/99,06:55:01,570,178,-14,1,951
04/02/99,07:00:01,511,178,-14,1,951
04/02/99,07:05:01,535,178,-14,1,951
04/02/99,07:10:01,543,178,-14,1,951
04/02/99,07:15:01,443,178,-14,1,951
04/02/99,07:20:01,481,166,-14,1,951
04/02/99,07:25:01,545,176,-14,1,951
04/02/99,07:30:01,490,176,-14,1,951
04/02/99,07:35:01,465,176,-14,1,951
04/02/99,07:40:01,467,176,-14,1,951
04/02/99,07:45:01,466,176,-14,1,951
04/02/99,07:50:01,480,176,-14,1,951
04/02/99,07:55:01,478,176,-14,1,951
04/02/99,08:00:01,559,176,-14,1,951
04/02/99,08:05:01,445,176,-14,1,951
04/02/99,08:10:01,466,176,-14,1,951
04/02/99,08:15:01,470,176,-14,1,951
04/02/99,08:20:01,460,176,-14,1,951
04/02/99,08:25:01,489,176,-14,1,951
04/02/99,08:30:01,448,176,-14,1,951
04/02/99,08:35:01,456,176,-14,1,951
04/02/99,08:40:01,435,177,-14,1,951
04/02/99,08:45:01,432,178,-14,1,951
04/02/99,08:50:01,428,178,-14,1,951
04/02/99,08:55:01,380,178,-14,1,951
04/02/99,09:00:01,399,178,-14,1,951
04/02/99,09:05:01,414,178,-14,1,951
04/02/99,09:10:01,417,178,-14,1,951
04/02/99,09:15:01,386,178,-14,1,951
04/02/99,09:20:01,411,178,-14,1,951
04/02/99,09:25:01,385,178,-14,1,951
04/02/99,09:30:01,372,166,-14,1,951
04/02/99,09:35:01,427,178,-14,1,951
04/02/99,09:40:01,436,180,-14,1,951
04/02/99,09:45:01,420,180,-14,1,951
04/02/99,09:50:01,426,177,-14,1,951
04/02/99,09:55:01,442,177,-14,1,951
04/02/99,10:00:01,438,165,-14,1,951
04/02/99,10:05:01,440,175,-14,1,951
04/02/99,10:10:01,463,173,-14,1,951
04/02/99,10:15:01,496,173,-14,1,951
04/02/99,10:20:01,494,175,-14,1,951
04/02/99,10:25:01,483,165,-14,1,951
04/02/99,10:30:01,467,165,-14,1,951
04/02/99,10:35:01,504,172,-14,1,951
04/02/99,10:40:01,501,172,-14,1,951
04/02/99,10:45:01,443,172,-14,1,951
04/02/99,10:50:01,477,172,-14,1,951
04/02/99,10:55:01,477,172,-14,1,951
04/02/99,11:00:01,538,172,-14,1,951
04/02/99,11:05:01,472,172,-14,1,951
04/02/99,11:10:01,451,172,-14,1,951
04/02/99,11:15:01,396,172,-14,1,951
04/02/99,11:20:01,417,172,-14,1,951
04/02/99,11:25:01,411,172,-14,1,951
04/02/99,11:30:01,448,172,-14,1,951
04/02/99,11:35:01,452,172,-14,1,951
04/02/99,11:40:01,483,172,-14,1,951
04/02/99,11:45:01,449,172,-14,1,951
04/02/99,11:50:01,450,162,-14,1,951
04/02/99,11:55:01,442,172,-14,1,951
04/02/99,12:00:01,423,173,-14,1,951
04/02/99,12:05:01,437,173,-14,1,951
04/02/99,12:10:01,449,173,-14,1,951
04/02/99,12:15:01,481,173,-14,1,951
04/02/99,12:20:01,504,162,-14,1,951
04/02/99,12:25:01,507,175,-14,1,951
04/02/99,12:30:01,501,165,-14,1,951
04/02/99,12:35:01,455,174,-14,1,951
04/02/99,12:40:01,553,174,-14,1,951
04/02/99,12:45:01,493,174,-14,1,951
04/02/99,12:50:01,553,176,-14,1,951
04/02/99,12:55:01,471,165,-14,1,951
04/02/99,13:00:01,524,165,-14,1,951
04/02/99,13:05:01,509,176,-14,1,951
04/02/99,13:10:01,507,164,-14,1,951
04/02/99,13:15:01,481,174,-14,1,951
04/02/99,13:20:01,451,164,-14,1,951
04/02/99,13:25:01,450,165,-14,1,951
04/02/99,13:30:01,460,165,-14,1,951
04/02/99,13:35:01,460,167,-14,1,951
04/02/99,13:40:01,395,167,-14,1,951
04/02/99,13:45:01,479,170,-14,1,951
04/02/99,13:50:01,423,170,-14,1,951
04/02/99,13:55:01,471,170,-14,1,951
04/02/99,14:00:01,450,171,-14,1,951
04/02/99,14:05:01,467,171,-14,1,951
04/02/99,14:10:01,500,171,-14,1,951
04/02/99,14:15:01,478,171,-14,1,949
04/02/99,14:20:01,515,173,-14,1,949
04/02/99,14:25:01,468,163,-14,1,949
04/02/99,14:30:01,495,163,-14,1,949
04/02/99,14:35:01,454,164,-14,1,949
04/02/99,14:40:01,443,180,-14,1,949
04/02/99,14:45:01,498,169,-14,1,949
04/02/99,14:50:01,485,166,-14,1,949
04/02/99,14:55:01,473,166,-14,1,949
04/02/99,15:00:01,488,166,-14,1,949
04/02/99,15:05:01,527,166,-14,1,949
04/02/99,15:10:01,449,176,-14,1,949
04/02/99,15:15:01,532,176,-14,1,949
04/02/99,15:20:01,490,176,-14,1,949
04/02/99,15:25:01,514,179,-14,1,949
04/02/99,15:30:01,482,167,-14,1,949
04/02/99,15:35:01,457,169,-14,1,949
04/02/99,15:40:01,534,169,-14,1,949
04/02/99,15:45:01,476,169,-14,1,949
04/02/99,15:50:01,438,169,-14,1,949
04/02/99,15:55:01,478,169,-14,1,949
04/02/99,16:00:01,559,169,-14,1,949
04/02/99,16:05:01,522,169,-14,1,949
04/02/99,16:10:01,605,169,-16,1,949
04/02/99,16:15:01,545,169,-16,1,949
04/02/99,16:20:01,567,169,-16,1,949
04/02/99,16:25:01,575,167,-16,1,949
04/02/99,16:30:01,576,167,-16,1,949
04/02/99,16:35:01,562,167,-16,1,949
04/02/99,16:40:01,535,167,-16,1,949
04/02/99,16:45:01,537,167,-16,1,949
04/02/99,16:50:01,530,157,-16,1,949
04/02/99,16:55:01,560,167,-16,1,949
04/02/99,17:00:01,478,167,-16,1,949
04/02/99,17:05:01,476,167,-16,1,949
04/02/99,17:10:01,514,167,-16,1,949
04/02/99,17:15:01,543,167,-16,1,949
04/02/99,17:20:01,510,167,-16,1,949
04/02/99,17:25:01,498,167,-16,1,949
04/02/99,17:30:01,458,155,-16,1,949
04/02/99,17:35:01,520,165,-16,1,949
04/02/99,17:40:01,497,165,-16,1,949
04/02/99,17:45:01,514,165,-16,1,949
04/02/99,17:50:01,478,164,-16,1,949
04/02/99,17:55:01,505,164,-16,1,949
04/02/99,18:00:01,504,164,-16,1,949
04/02/99,18:05:01,524,164,-16,1,949
04/02/99,18:10:01,461,164,-16,1,949
04/02/99,18:15:01,498,164,-16,1,949
04/02/99,18:20:01,480,164,-16,1,949
04/02/99,18:25:01,428,164,-16,1,949
04/02/99,18:30:01,433,155,-16,1,949
04/02/99,18:35:01,425,159,-16,1,949
04/02/99,18:40:01,412,159,-16,1,949
04/02/99,18:45:01,445,159,-16,1,949
04/02/99,18:50:01,412,159,-16,1,949
04/02/99,18:55:01,441,160,-16,1,949
04/02/99,19:00:01,452,160,-16,1,949
04/02/99,19:05:01,464,160,-16,1,949
04/02/99,19:10:01,498,160,-16,1,949
04/02/99,19:15:01,490,160,-16,1,949
04/02/99,19:20:01,564,160,-16,1,949
04/02/99,19:25:01,497,160,-16,1,949
04/02/99,19:30:01,473,160,-16,1,949
04/02/99,19:35:01,450,160,-16,1,949
04/02/99,19:40:01,559,160,-16,1,949
04/02/99,19:45:01,535,160,-16,1,949
04/02/99,19:50:01,504,160,-16,1,949
04/02/99,19:55:01,605,160,-16,1,949
04/02/99,20:00:01,594,160,-16,1,949
04/02/99,20:05:01,558,160,-16,1,949
04/02/99,20:10:01,569,160,-16,1,949
04/02/99,20:15:01,559,160,-16,1,949
04/02/99,20:20:01,579,160,-16,1,949
04/02/99,20:25:01,565,170,-16,1,947
04/02/99,20:30:01,552,159,-16,1,947
04/02/99,20:35:01,514,161,-16,1,947
04/02/99,20:40:01,523,161,-16,3,947
04/02/99,20:45:01,484,161,-16,3,947
04/02/99,20:50:01,528,161,-16,5,947
04/02/99,20:55:01,460,161,-16,5,947
04/02/99,21:00:01,493,161,-16,5,947
04/02/99,21:05:01,528,161,-16,7,947
04/02/99,21:10:01,552,161,-16,7,947
04/02/99,21:15:01,596,161,-16,9,947
04/02/99,21:20:01,547,161,-16,11,947
04/02/99,21:25:01,495,161,-16,11,947
04/02/99,21:30:01,481,161,-16,13,947
04/02/99,21:35:01,572,161,-16,15,949
04/02/99,21:40:01,596,161,-16,17,949
04/02/99,21:45:01,589,161,-16,19,949
04/02/99,21:50:01,574,161,-16,19,949
04/02/99,21:55:01,543,161,-16,19,949
04/02/99,22:00:01,575,161,-16,21,949
04/02/99,22:05:01,515,161,-16,23,949
04/02/99,22:10:01,511,161,-16,23,949
04/02/99,22:15:01,475,161,-16,25,949
04/02/99,22:20:01,537,160,-16,25,949
04/02/99,22:25:01,463,164,-16,25,949
04/02/99,22:30:01,517,164,-16,25,949
04/02/99,22:35:01,466,164,-16,25,949
04/02/99,22:40:01,423,164,-16,29,949
04/02/99,22:45:01,426,164,-16,29,949
04/02/99,22:50:01,498,164,-16,31,949
04/02/99,22:55:01,517,164,-16,33,949
04/02/99,23:00:01,528,164,-16,33,949
04/02/99,23:05:01,441,164,-16,35,949
04/02/99,23:10:01,481,166,-16,35,949
04/02/99,23:15:01,460,166,-16,37,949
04/02/99,23:20:01,466,167,-16,37,949
04/02/99,23:25:01,466,167,-16,39,949
04/02/99,23:30:01,492,157,-16,41,949
04/02/99,23:35:01,466,157,-16,43,949
04/02/99,23:40:01,423,156,-16,45,949
04/02/99,23:45:01,505,157,-16,47,949
04/02/99,23:50:01,460,165,-16,49,949
04/02/99,23:55:01,456,166,-16,51,949
04/03/99,00:00:01,491,166,-16,51,949
